Temperature
17 17 17 17 17 17 17 17 17 18 18 17 17 17 17 16 16 16 16 16 16 16 16 16 16 16 16 15 15 15 15 15 15 15 15 14 14 14
17 17 17 17 17 17 17 17 17 17 17 17 17 17 16 16 16 16 16 16 16 16 16 16 16 16 15 15 15 15 15 15 15 15 14 14 14 14
17 17 17 17 17 17 17 17 16 16 17 17 16 16 16 16 16 16 16 16 16 16 16 16 16 15 15 15 15 15 15 15 15 14 14 14 14 14
17 17 17 17 17 17 16 16 16 16 16 16 16 16 16 16 15 16 15 15 15 15 15 15 15 15 15 15 15 15 15 14 14 14 14 14 14 13
17 17 17 17 17 17 16 16 16 16 16 16 16 16 15 15 15 15 15 15 15 15 15 15 15 15 15 15 15 14 14 14 14 14 14 14 13 13
17 17 17 17 17 16 16 16 16 16 16 16 16 16 15 15 15 15 15 15 15 14 14 14 15 14 14 14 14 14 14 14 14 14 13 13 13 13
17 17 17 17 17 16 16 16 16 16 16 16 16 16 15 15 15 15 15 15 14 14 14 14 14 14 14 14 14 14 14 14 13 13 13 13 13 13
17 16 16 16 17 17 16 16 16 16 15 15 16 15 15 15 15 15 15 14 14 14 14 14 14 14 13 13 13 13 13 13 13 13 13 13 13 12
16 16 16 16 16 16 16 16 16 16 16 15 15 15 15 15 14 14 14 14 14 14 14 14 14 13 13 13 13 13 13 13 13 12 12 12 12 12
16 16 16 16 16 16 15 15 15 15 15 15 15 15 15 15 14 14 14 14 14 14 14 13 13 13 13 13 13 13 13 13 12 12 12 12 12 11
15 15 15 15 16 15 15 15 15 15 15 15 15 15 15 14 14 14 14 14 14 13 13 13 13 13 13 13 13 13 12 12 12 12 11 11 11 11
15 15 15 15 15 15 15 14 14 14 14 14 14 14 14 14 14 14 13 13 14 13 13 13 13 12 12 12 12 12 12 12 11 11 11 11 11 11
14 14 14 15 15 15 14 14 14 14 14 14 14 14 13 13 13 13 13 13 13 13 13 12 12 12 12 12 12 11 11 11 11 11 10 10 10 10
14 14 14 14 14 14 14 14 14 14 13 13 13 13 13 13 13 13 13 13 13 12 12 12 12 12 12 12 11 11 11 10 10 10 10 10 10 9
14 13 13 14 13 13 13 13 13 13 13 13 13 13 13 13 12 12 12 12 12 12 11 12 11 11 11 11 11 11 11 10 10 10 10 9 9 9
13 13 13 13 13 13 13 13 13 13 12 12 12 12 12 12 12 12 12 12 12 11 11 11 11 11 11 11 11 10 10 10 10 9 9 9 9 9
12 12 12 12 12 12 12 12 12 12 12 12 12 12 12 12 12 12 11 11 11 11 11 11 10 10 10 10 10 10 10 10 9 9 9 9 8 8
12 12 12 12 12 12 12 12 12 12 12 11 11 11 11 11 11 11 11 11 11 11 11 10 10 10 10 10 10 9 9 9 9 9 8 8 8 8
11 11 11 11 11 11 11 11 11 11 11 11 11 11 11 11 11 10 10 10 10 10 10 10 9 9 10 10 9 9 9 8 8 8 8 8 8 8
11 11 11 11 11 11 11 11 11 10 10 10 10 10 10 10 10 10 10 9 9 9 9 9 9 9 9 9 9 8 8 8 8 8 8 8 8 8
10 10 10 10 10 10 10 10 10 10 10 10 10 9 9 10 9 9 9 9 9 9 9 9 9 8 8 8 8 8 8 8 7 7 7 7 8 8
9 10 10 9 9 9 9 9 9 9 9 9 9 9 9 9 9 9 9 9 9 9 9 9 8 8 8 8 8 8 8 7 7 7 7 7 7 7
9 9 9 9 9 9 9 9 9 9 9 9 9 9 9 9 9 9 9 9 9 9 8 8 8 8 8 8 8 8 8 7 7 7 7 6 6 6
Wind_Speed
6 6 5 4 5 4 5 5 5 5 4 3 3 2 2 2 3 4 3 5 6 5 5 5 5 5 5 5 5 5 5 7 7 8 8 9 10 11
5 5 5 5 4 4 4 5 5 5 5 3 2 2 1 2 3 4 3 7 7 7 6 6 6 5 5 5 4 4 4 4 6 6 7 7 8 8
6 7 7 6 5 5 5 5 5 5 6 4 2 2 2 3 2 3 4 5 6 9 7 6 6 6 5 5 5 4 4 4 4 4 4 6 6 7
7 7 7 6 6 6 5 6 5 5 6 5 4 3 3 4 3 4 4 4 4 8 9 8 6 6 5 5 5 5 5 5 5 4 4 4 5 6
7 7 7 7 7 6 6 6 6 6 5 6 5 3 4 4 4 4 4 4 4 6 9 10 9 8 7 6 6 6 5 5 6 5 5 6 6 5
7 8 8 8 8 7 7 7 6 6 6 6 5 5 4 4 5 5 4 4 4 4 5 7 9 10 9 8 7 7 7 6 6 6 6 6 6 6
7 8 8 7 6 6 6 6 6 6 6 6 6 5 5 4 5 5 5 4 5 4 4 5 6 6 8 9 8 8 9 8 7 7 7 7 7 7
8 8 8 8 8 8 7 6 6 7 7 7 6 6 6 6 5 6 5 5 4 4 5 5 5 5 5 5 8 10 10 10 9 8 8 8 8 8
7 7 7 6 8 8 8 10 8 7 7 7 7 7 6 5 6 7 6 6 5 3 5 6 5 5 5 5 9 11 10 10 10 9 9 8 8 8
7 7 7 6 6 7 7 8 8 8 8 8 7 7 6 4 6 7 6 6 6 4 4 5 5 5 4 5 10 11 11 10 10 10 9 9 8 8
7 7 7 7 5 6 8 8 8 7 7 7 6 5 3 3 4 5 5 6 5 4 4 5 4 4 4 4 7 13 12 11 10 10 10 9 8 9
6 6 5 6 5 6 8 8 8 7 6 6 6 6 5 4 5 6 6 6 5 4 3 4 4 3 3 3 3 6 8 10 11 11 11 10 9 7
6 6 5 5 6 7 8 7 6 6 5 6 5 5 4 4 5 5 5 5 5 4 3 4 4 4 4 2 2 3 4 5 6 8 11 12 11 9
6 5 3 5 5 6 5 4 5 6 5 5 4 4 4 4 3 4 4 4 4 4 3 4 4 4 4 3 3 3 4 4 4 4 5 10 12 12
4 2 3 6 7 6 6 6 6 5 5 5 5 5 4 4 3 3 4 4 4 4 3 4 4 4 4 4 3 3 4 4 5 5 5 5 5 6
4 4 6 6 6 4 5 5 4 4 4 5 5 4 4 4 4 4 4 4 3 3 3 3 4 4 4 4 4 3 3 4 5 5 5 5 5 6
3 3 4 4 4 4 4 4 4 4 4 4 4 4 4 4 4 4 3 4 4 4 3 2 2 3 3 4 4 3 3 3 3 4 5 5 5 5
4 4 4 5 5 4 4 4 4 4 4 4 4 4 4 4 3 3 3 4 4 3 3 2 2 2 3 2 3 4 3 3 3 4 5 5 5 5
5 5 4 4 4 4 4 4 4 3 3 4 4 4 4 4 3 3 3 4 4 4 3 3 3 3 4 4 3 3 3 3 3 4 5 5 6 5
4 4 4 4 4 4 4 4 4 4 4 3 3 3 4 4 4 4 4 4 4 3 3 2 3 3 5 4 3 3 5 4 3 4 4 5 4 3
3 3 3 3 3 3 3 3 3 3 3 3 3 4 4 4 4 4 4 4 5 4 4 3 2 4 5 4 4 3 3 4 3 3 4 4 4 5
2 2 3 3 3 3 2 2 3 3 3 3 3 4 4 4 4 5 4 4 4 4 4 3 3 4 4 5 5 4 3 3 4 5 4 3 3 4
2 2 2 3 3 3 2 3 3 3 3 3 4 4 4 4 4 5 5 5 5 4 4 4 3 4 5 5 5 4 3 4 3 4 4 5 5 3
Wind_Direction
229 226 238 241 243 250 252 256 264 272 264 232 234 229 231 224 178 219 195 160 175 186 197 204 204 204 207 204 209 218 227 228 229 231 232 230 230 231
230 238 243 247 246 246 247 250 253 263 268 266 248 234 225 234 191 225 205 169 181 186 191 195 197 198 195 192 195 196 201 206 211 218 224 227 228 226
229 228 232 244 247 243 238 242 245 250 257 261 247 203 213 243 214 231 217 214 194 181 187 190 192 191 190 193 197 199 198 195 195 202 220 225 223 214
232 233 235 230 232 242 241 241 239 238 248 258 252 231 221 224 226 236 229 227 219 174 179 183 186 189 191 193 196 200 199 194 196 201 207 208 199 193
234 234 235 233 235 233 236 240 238 234 236 246 245 230 225 211 219 231 235 238 233 183 179 185 190 195 196 192 194 194 192 191 190 193 190 181 178 176
235 236 236 235 237 236 235 237 240 241 235 243 243 230 227 215 220 228 230 220 231 217 202 197 191 196 194 192 194 195 192 189 187 187 186 182 178 176
237 239 238 235 241 244 247 237 232 237 239 240 242 238 234 225 231 233 233 228 220 223 223 214 202 206 195 194 200 201 197 193 192 191 189 187 186 184
238 243 239 227 226 224 242 250 248 239 242 244 243 245 245 241 241 243 240 236 238 216 231 235 223 223 210 197 186 189 194 194 195 196 194 190 188 188
239 242 246 234 226 228 217 219 230 238 244 249 250 253 251 241 240 240 241 241 246 230 230 242 226 227 217 179 161 177 188 193 195 196 195 193 191 188
239 241 243 242 238 237 232 226 227 227 230 237 250 259 262 259 238 242 243 237 240 237 231 249 237 232 224 184 167 176 184 190 195 196 193 192 195 197
240 242 244 240 231 236 236 233 230 227 214 208 226 244 264 256 249 237 231 230 238 226 215 244 247 241 230 208 176 177 180 184 189 191 191 191 198 203
237 234 235 242 226 223 230 233 234 232 231 217 215 223 228 219 221 237 241 242 243 236 201 228 241 235 236 216 188 180 183 184 188 190 191 192 195 208
240 235 228 198 205 216 234 236 236 242 233 228 222 219 218 220 223 230 249 255 253 249 218 215 237 227 238 233 218 206 200 194 193 196 194 195 199 212
242 241 215 157 186 204 216 229 236 241 235 229 225 219 219 222 220 223 232 249 262 263 248 223 239 236 236 235 233 213 208 206 206 204 197 189 203 215
241 223 172 180 192 196 202 219 225 229 233 230 228 228 223 220 217 209 217 223 235 250 237 223 240 241 242 242 236 222 221 216 208 210 209 203 206 214
224 177 175 197 210 203 198 204 218 229 236 238 239 238 233 220 216 215 219 215 226 226 212 222 243 247 244 244 239 224 225 216 206 211 219 219 211 211
220 208 214 209 212 210 210 211 216 215 225 237 239 232 227 222 220 220 224 231 228 225 216 210 218 236 253 250 243 234 230 235 221 214 222 221 218 215
212 217 219 221 224 223 221 217 214 218 224 229 232 231 227 225 226 226 228 228 230 236 232 221 216 232 240 236 250 251 249 241 230 222 227 231 229 218
211 218 221 226 229 229 231 233 230 221 221 226 228 227 225 226 225 225 228 234 236 237 239 233 230 237 246 249 226 236 263 257 248 235 228 234 238 227
218 217 220 224 228 229 231 233 235 229 221 222 224 224 224 226 227 227 224 230 239 245 244 236 231 245 257 265 259 228 216 245 246 249 248 241 241 214
230 228 229 231 234 239 240 239 243 241 232 226 220 224 229 231 234 236 232 215 232 237 241 242 242 248 255 258 254 237 198 193 236 260 263 253 245 236
237 237 240 244 239 240 239 239 241 238 234 234 235 236 235 236 234 234 235 234 235 239 249 249 226 236 246 249 251 248 225 200 202 209 226 251 261 258
231 235 235 232 230 232 237 239 238 242 245 246 244 243 243 241 241 238 235 236 235 236 242 243 238 237 241 241 247 251 243 243 239 219 207 187 200 222
Height
1533 1533 1534 1534 1534 1534 1534 1534 1535 1534 1533 1533 1533 1533 1532 1532 1531 1531 1530 1530 1530 1530 1530 1530 1530 1530 1530 1530 1530 1531 1530 1530 1530 1531 1531 1532 1532 1533
1530 1530 1530 1531 1531 1531 1531 1531 1531 1532 1531 1531 1530 1530 1529 1529 1529 1528 1528 1527 1526 1526 1526 1527 1527 1527 1527 1527 1527 1527 1526 1526 1526 1526 1527 1527 1528 1529
1526 1526 1526 1526 1527 1527 1527 1527 1528 1528 1528 1528 1528 1527 1526 1526 1526 1525 1525 1524 1524 1523 1523 1523 1523 1523 1523 1523 1523 1523 1523 1523 1523 1523 1523 1523 1524 1524
1523 1523 1523 1523 1523 1523 1524 1524 1524 1524 1524 1524 1524 1524 1523 1523 1523 1522 1522 1522 1521 1520 1520 1520 1520 1520 1520 1520 1520 1520 1520 1520 1520 1520 1520 1520 1520 1521
1519 1519 1519 1519 1519 1520 1520 1520 1521 1521 1520 1521 1521 1521 1520 1520 1520 1520 1519 1519 1519 1518 1517 1517 1517 1517 1517 1516 1516 1516 1517 1517 1517 1517 1516 1516 1516 1517
1515 1515 1516 1516 1516 1516 1516 1516 1517 1517 1517 1517 1518 1517 1517 1517 1516 1516 1516 1516 1515 1515 1514 1514 1513 1513 1513 1513 1513 1513 1513 1513 1513 1513 1513 1513 1513 1513
1511 1511 1511 1511 1512 1512 1513 1513 1513 1513 1514 1514 1514 1514 1514 1513 1513 1513 1513 1513 1512 1512 1512 1511 1511 1510 1510 1509 1509 1509 1510 1510 1510 1510 1510 1510 1510 1510
1506 1507 1507 1506 1507 1507 1508 1509 1509 1509 1510 1510 1510 1510 1510 1510 1510 1510 1510 1510 1509 1509 1508 1508 1508 1507 1507 1506 1505 1506 1506 1506 1506 1507 1507 1507 1507 1507
1501 1502 1503 1503 1503 1503 1503 1504 1504 1504 1505 1505 1506 1505 1506 1506 1506 1506 1506 1506 1505 1505 1505 1504 1504 1504 1504 1503 1502 1502 1502 1502 1503 1503 1503 1504 1503 1503
1496 1497 1497 1498 1498 1499 1500 1500 1500 1500 1500 1501 1501 1501 1501 1501 1501 1502 1502 1501 1501 1501 1501 1501 1500 1500 1500 1499 1498 1498 1498 1498 1498 1499 1500 1500 1500 1500
1491 1492 1492 1493 1493 1494 1495 1495 1495 1495 1496 1496 1496 1496 1496 1497 1497 1498 1498 1498 1497 1497 1496 1497 1497 1496 1496 1495 1494 1494 1494 1494 1494 1495 1495 1496 1496 1496
1487 1487 1487 1488 1489 1489 1490 1490 1491 1491 1491 1492 1492 1492 1492 1493 1493 1493 1494 1494 1494 1493 1492 1493 1493 1493 1492 1491 1491 1490 1490 1490 1490 1491 1491 1492 1492 1493
1482 1483 1483 1483 1484 1484 1485 1486 1486 1487 1487 1487 1488 1488 1488 1488 1489 1489 1489 1490 1490 1489 1489 1488 1488 1488 1489 1487 1487 1487 1487 1486 1487 1487 1487 1488 1488 1489
1478 1479 1479 1479 1479 1479 1480 1481 1482 1482 1483 1483 1484 1484 1484 1484 1484 1484 1484 1484 1484 1485 1484 1484 1484 1484 1484 1484 1483 1483 1483 1483 1483 1484 1484 1484 1485 1485
1473 1474 1474 1474 1475 1475 1476 1476 1478 1479 1479 1480 1479 1480 1480 1480 1480 1480 1480 1480 1480 1480 1480 1479 1480 1480 1480 1480 1479 1479 1479 1479 1480 1480 1480 1481 1481 1482
1469 1470 1470 1470 1471 1471 1472 1472 1473 1474 1474 1475 1475 1476 1476 1476 1476 1477 1477 1476 1476 1476 1476 1475 1475 1475 1476 1476 1476 1475 1475 1475 1475 1476 1476 1477 1477 1478
1465 1466 1466 1467 1467 1467 1468 1468 1469 1469 1470 1471 1471 1471 1472 1472 1472 1473 1473 1473 1472 1472 1472 1472 1472 1471 1471 1472 1472 1472 1472 1471 1471 1472 1472 1473 1473 1473
1461 1462 1462 1463 1463 1464 1464 1464 1465 1465 1465 1466 1467 1467 1467 1468 1468 1468 1468 1469 1469 1469 1468 1468 1468 1468 1468 1468 1468 1468 1469 1469 1468 1468 1468 1469 1469 1470
1457 1457 1458 1459 1459 1460 1460 1460 1461 1461 1461 1462 1462 1463 1463 1464 1464 1464 1465 1465 1465 1465 1465 1465 1465 1465 1465 1464 1464 1465 1465 1465 1465 1464 1464 1465 1465 1466
1453 1453 1454 1455 1455 1456 1456 1456 1457 1457 1457 1458 1458 1459 1459 1460 1461 1461 1461 1461 1461 1462 1462 1462 1462 1462 1462 1462 1462 1460 1460 1461 1461 1461 1461 1461 1461 1462
1450 1450 1451 1451 1452 1452 1452 1453 1454 1454 1454 1454 1454 1455 1456 1457 1457 1457 1458 1457 1458 1458 1458 1458 1458 1458 1459 1459 1459 1458 1457 1457 1457 1457 1457 1457 1457 1457
1446 1447 1447 1447 1448 1448 1449 1449 1450 1450 1451 1451 1451 1452 1452 1453 1453 1454 1454 1454 1454 1455 1455 1455 1455 1455 1456 1456 1455 1455 1455 1454 1454 1454 1454 1454 1453 1453
1443 1444 1444 1444 1445 1445 1445 1446 1447 1447 1447 1447 1448 1448 1449 1449 1449 1450 1450 1451 1451 1451 1451 1452 1452 1452 1452 1452 1452 1452 1452 1452 1452 1452 1451 1450 1450 1450